Location: Chin
(49.7667°N, 112.4500°W)
Time: 10:43:19
(UTC+00:00)

Envisat - Pass Details

Date: 05 December 2021
Orbit: 764 x 766 km, 98.2° (Epoch: 24 January)

Event Time Altitude Azimuth Distance (km) Brightness Sun altitude
Rises 13:13:37 0° 10° (N) 3,247 6.2 -18.0°
Reaches altitude 10° 13:15:58 10° 6° (N) 2,316 5.4 -17.7°
Maximum altitude 13:20:54 52° 291° (WNW) 956 3.1 -16.9°
Drops below altitude 10° 13:25:48 10° 216° (SW) 2,299 5.3 -16.1°
Sets 13:28:08 0° 212° (SSW) 3,221 6.1 -15.8°
